Location: Unspecified
(48.5670°N, 0.0000°E)
Time: 19:54:44
(UTC+00:00)

Altair - Pass Details

Date: 29 August 2019
Orbit: 1501 x 1683 km, 47.2° (Epoch: 14 September)

Event Time Altitude Azimuth Distance (km) Brightness Sun altitude
Exits shadow 02:28:45 36° 232° (SW) 2,372 7.9 -23.5°
Maximum altitude 02:33:21 70° 160° (SSE) 1,688 7.5 -23.0°
Drops below altitude 10° 02:42:49 10° 79° (E) 3,751 10.3 -21.9°
Sets 02:45:50 0° 78° (ENE) 4,714 11.0 -21.6°
